Regional Weather Roundup
Issued by NWS Cleveland, OH

Home | Current Version | Previous Version | Graphics & Text | Print | Product List | Glossary On
Versions: 1 2 3 4 5 6 7 8 9 10 11 12 13 14 15 16 17 18 19 20 21 22 23 24 25 26 27 28 29 30 31 32 33 34 35 36 37 38 39 40 41 42 43 44 45 46 47 48 49 50
000
ASUS41 KCLE 282210
RWRCLE
OHIO REGIONAL WEATHER ROUNDUP
NATIONAL WEATHER SERVICE CLEVELAND, OH
600 PM EDT THU APR 28 2016

NOTE: "FAIR" INDICATES FEW OR NO CLOUDS BELOW 12,000 FEET WITH NO
SIGNIFICANT WEATHER AND/OR OBSTRUCTIONS TO VISIBILITY.

OHZ001>008-015>018-024>027-034-035-043-044-282300-
   NORTHWEST OHIO

CITY           SKY/WX    TMP DP  RH WIND       PRES   REMARKS
DEFIANCE       CLOUDY    52  40  63 E12       29.93R
FINDLAY        CLOUDY    52  42  69 NE13      29.90S
TOLEDO EXPRESS CLOUDY    48  36  63 E15       29.94S
TOLEDO EXEC    CLOUDY    48  37  65 NE13      29.95S
LIMA           CLOUDY    50  48  93 NE8       29.90R
$$

OHZ009>014-019>023-028>033-038-089-282300-
   NORTHEAST OHIO

CITY           SKY/WX    TMP DP  RH WIND       PRES   REMARKS
CLE-HOPKINS    CLOUDY    50  47  89 N10       29.95S
CLE-LAKEFRONT  CLOUDY    48  45  89 NE15      29.92S
CUY CO. ARPT   CLOUDY    52  48  87 E7        29.93S FOG
LORAIN-ELYRIA  CLOUDY    48  44  86 NE10      29.92S
ASHTABULA      LGT RAIN  47  45  93 CALM      29.96R
AKRON-CANTON   CLOUDY    49  44  83 E9        29.90F
WOOSTER        CLOUDY    50  46  86 E7        29.90R
MANSFIELD      CLOUDY    51  48  89 N3        29.90R
YOUNGSTOWN     LGT RAIN  47  44  90 E7        29.92R
$$

OHZ042-051>053-060>062-070>072-077>081-282300-
  SOUTHWEST OHIO

CITY           SKY/WX    TMP DP  RH WIND       PRES   REMARKS
CINC-COVINGTON MOSUNNY   73  60  63 W8        29.82S
CINC-LUNKEN    SUNNY     72  65  78 SW5       29.81F
HAMILTON       SUNNY     77  59  53 SW10      29.81R
DAYTON         TSTM      63  59  87 N9        29.85R FOG
WRIGHT-PAT AFB LGT RAIN  66  61  82 N8        29.82S
DAYTON GENERAL MOSUNNY   72  59  63 CALM      29.80S
WILMINGTON     TSTM      64  59  83 NW13G31   29.84R VSB 1/2
$$

OHZ036-037-039>041-045>050-054>059-063>069-073>076-082>088-282300-
  CENTRAL AND SOUTHEAST OHIO

CITY           SKY/WX    TMP DP  RH WIND       PRES   REMARKS
COLUMBUS       PTSUNNY   63  54  72 NE8       29.84R
OSU AIRPORT    PTSUNNY   62  53  72 NE7       29.84S
BOLTON FIELD   MOSUNNY   64  55  72 N6        29.84S
RICKENBACK AFB PTSUNNY   66  56  70 N6        29.83R
NEWARK         CLOUDY    61  51  70 NE7       29.85R
MARION         CLOUDY    54  49  83 NE10      29.88S HAZE
LANCASTER      SUNNY     67  59  75 N7        29.84R
ZANESVILLE     PTSUNNY   63  52  67 N9        29.86R
NEW PHILLY     LGT RAIN  53  48  83 NE6       29.89S
$$



USA.gov is the U.S. government's official web portal to all federal, state and local government web resources and services.